Location: Antist
(43.1184°N, 0.1270°E)
Time: 02:08:34
(UTC+00:00)

SL-16 R/B - Pass Details

Date: 19 January 2020
Orbit: 841 x 848 km, 71.0° (Epoch: 22 February)

Event Time Altitude Azimuth Distance (km) Brightness Sun altitude
Rises 20:16:15 0° 329° (NNW) 3,416 5.8 -36.5°
Reaches altitude 10° 20:18:49 10° 322° (NW) 2,476 5.0 -37.0°
Enters shadow 20:21:55 29° 301° (WNW) 1,499 3.8 -37.5°
